National Weather Service Raw Text Product

Displaying AFOS PIL: RWRIA Received: 2018-06-14 05:00 UTC


917 
ASUS43 KDMX 140506
RWRIA 

WEATHER ROUNDUP FOR IOWA
NATIONAL WEATHER SERVICE DES MOINES IA
1200 AM CDT THU JUN 14 2018

NOTE: "FAIR" INDICATES FEW OR NO CLOUDS BELOW 12,000 FEET WITH NO
SIGNIFICANT WEATHER AND/OR OBSTRUCTIONS TO VISIBILITY.

* - THESE STATIONS ARE NOT NWS STATIONS...THUS NOT UNDER NWS
QUALITY CONTROL.  THEY ALSO DO NOT REPORT WEATHER SUCH 
AS PRECIPITATION OR FOG.  

IAZ001>003-012>014-020>022-031>034-043>046-140600-
   NORTHWEST IOWA
  
CITY           SKY/WX    TMP DP  RH WIND       PRES   REMARKS
CARROLL *      CLOUDY    66  57  72 CALM      29.99S                  
CHEROKEE *     MOCLDY    65  56  71 E5        29.98F                  
DENISON *      CLOUDY    68  55  64 S10       29.99F                  
LE MARS *      CLOUDY   N/A N/A N/A SE5       29.98R                  
ORANGE CITY *  MOCLDY    64  57  77 CALM      29.99S                  
SHELDON *      PTCLDY    61  59  94 SE7       29.98S                  
SIOUX CITY     LGT RAIN  66  56  70 SE9       29.95S                  
SPENCER        PTCLDY    62  57  83 E7        30.00F                  
STORM LAKE *   PTCLDY    63  55  77 SE7       30.00S                  
$$
 
IAZ055>058-069>071-079>083-090>094-140600-
   SOUTHWEST IOWA
  
CITY           SKY/WX    TMP DP  RH WIND       PRES   REMARKS
ATLANTIC *     MOCLDY    68  57  68 S6        29.99S                  
AUDUBON *      CLOUDY    66  57  72 S5        30.00S                  
CLARINDA *     CLOUDY    68  59  73 CALM      30.03S                  
COUNCIL BLFS * MOCLDY    70  61  73 MISG      29.96F                  
CRESTON *      CLEAR     66  57  72 SE10      30.02F                  
HARLAN  *      CLOUDY    70  55  60 S10       30.01S                  
LAMONI         CLOUDY    68  57  68 SE3       30.03S                  
RED OAK *      CLOUDY    72  57  60 MISG      29.99F                  
SHENANDOAH *   CLOUDY    72  57  60 SE9       29.99F                  
$$
 
IAZ047>049-059>061-072>074-084-140600-
   CENTRAL IOWA
  
CITY           SKY/WX    TMP DP  RH WIND       PRES   REMARKS
AMES           CLOUDY    69  54  58 S5        30.01R                  
ANKENY *       CLOUDY    68  57  68 CALM      30.01R                  
BOONE *        CLOUDY    70  55  60 S6        30.00R                  
CHARITON *     CLOUDY    66  55  68 SE7       30.01S                  
DES MOINES     PTCLDY    68  55  63 S7        29.99S                  
GRINNELL*      CLOUDY    68  53  58 S6        30.03R                  
KNOXVILLE *    CLOUDY    66  54  63 S8        30.00R                  
MARSHALLTOWN   CLOUDY    69  54  58 S6        30.01R                  
NEWTON *       CLOUDY    64  55  72 S6        30.01R                  
PELLA *        CLOUDY    66  53  63 S6        30.02R                  
PERRY *        FAIR      66  61  85 S5        30.00R                  
$$
 
IAZ004>006-015-016-023>025-035-036-140600-
   NORTH CENTRAL IOWA
  
CITY           SKY/WX    TMP DP  RH WIND       PRES   REMARKS
ALGONA *       CLOUDY    66  55  68 CALM      30.02S                  
CLARION *      MOCLDY    64  61  88 E3        30.03R                  
ESTHERVILLE    CLOUDY    64  54  69 S6        30.01S                  
MASON CITY     MOCLDY    63  55  75 S3        30.05R                  
FOREST CITY *  FAIR      63  55  77 CALM      30.03R                  
WEBSTER CITY * CLOUDY    68  54  60 CALM      30.00S                  
IOWA FALLS *   FAIR      66  57  72 NW3       30.04R                  
$$

IAZ007>011-017>019-026>030-037>042-050>054-066-140600-
   NORTHEAST IOWA
  
CITY           SKY/WX    TMP DP  RH WIND       PRES   REMARKS
CEDAR RAPIDS   FAIR      66  55  67 SW3       30.01F                  
CHARLES CITY * CLOUDY    66  57  72 SE6       30.02R                  
CLINTON *      FAIR      62  56  80 CALM      30.04F                  
DECORAH *      FAIR      64  55  72 E3        30.00S                  
DUBUQUE        FAIR      62  55  77 S3        30.03F                  
MONTICELLO *   FAIR      64  59  82 E5        30.00F                  
OELWEIN *      CLOUDY    66  55  68 SE5       30.02R                  
WATERLOO       FAIR      67  54  63 S6        30.01R                  
$$
 
IAZ064-065-067-068-078-140600-
   EAST CENTRAL IOWA
  
CITY           SKY/WX    TMP DP  RH WIND       PRES   REMARKS
DAVENPORT      FAIR      62  56  80 SW3       30.06F                  
IOWA CITY      FAIR      66  60  81 S7        30.01F                  
MT. PLEASANT * CLEAR     61  54  77 SE6       30.03F                  
MUSCATINE *      N/A    N/A N/A N/A MISG        N/A                   
QUAD CITIES    FAIR      61  56  83 CALM      30.04S                  
$$
 
IAZ062-063-075>077-085>089-095>099-140600-
   SOUTHEAST IOWA
  
CITY           SKY/WX    TMP DP  RH WIND       PRES   REMARKS
BURLINGTON     CLEAR     65  50  58 E3        30.04F                  
FAIRFIELD *    PTCLDY    64  54  68 SE6       30.02F                  
FORT MADISON * CLEAR     61  54  77 CALM      30.05S                  
KEOKUK *       CLEAR     64  55  72 E5        30.03S                  
OSKALOOSA *    FAIR      63  56  78 SE8       30.02S                  
CENTERVILLE *    N/A     61  59  94 CALM      30.05F                  
OTTUMWA        PTCLDY    65  53  65 SE9       30.02F                  
WASHINGTON *   PTCLDY    64  59  82 SE8       30.03F                  
$$

ABBREVIATIONS USED IN REMARKS
   TC - TEMPERATURES IN CELSIUS
  WCI - WIND CHILL INDEX
   HX - HEAT INDEX
  VSB - VISIBILITY  
$$

  

757 
ASUS43 KDMX 140501
RWRIA 

WEATHER ROUNDUP FOR IOWA
NATIONAL WEATHER SERVICE DES MOINES IA
1200 AM CDT THU JUN 14 2018

NOTE: "FAIR" INDICATES FEW OR NO CLOUDS BELOW 12,000 FEET WITH NO
SIGNIFICANT WEATHER AND/OR OBSTRUCTIONS TO VISIBILITY.

* - THESE STATIONS ARE NOT NWS STATIONS...THUS NOT UNDER NWS
QUALITY CONTROL.  THEY ALSO DO NOT REPORT WEATHER SUCH 
AS PRECIPITATION OR FOG.  

IAZ001>003-012>014-020>022-031>034-043>046-140600-
   NORTHWEST IOWA
  
CITY           SKY/WX    TMP DP  RH WIND       PRES   REMARKS
CARROLL *      CLOUDY    66  57  72 CALM      29.99S                  
CHEROKEE *     MOCLDY    65  56  71 E5        29.98F                  
DENISON *      CLOUDY    68  55  64 S10       29.99F                  
LE MARS *      CLOUDY   N/A N/A N/A SE5       29.98R                  
ORANGE CITY *  MOCLDY    64  57  77 CALM      29.99S                  
SHELDON *      PTCLDY    61  59  94 SE7       29.98S                  
SIOUX CITY     LGT RAIN  66  56  70 SE9       29.95S                  
SPENCER        PTCLDY    62  57  83 E7        30.00F                  
STORM LAKE *   PTCLDY    63  55  77 SE7       30.00S                  
$$
 
IAZ055>058-069>071-079>083-090>094-140600-
   SOUTHWEST IOWA
  
CITY           SKY/WX    TMP DP  RH WIND       PRES   REMARKS
ATLANTIC *     MOCLDY    68  57  68 S6        29.99S                  
AUDUBON *      CLOUDY    66  57  72 S5        30.00S                  
CLARINDA *     CLOUDY    68  59  73 CALM      30.03S                  
COUNCIL BLFS * MOCLDY    70  61  73 MISG      29.96F                  
CRESTON *      CLEAR     66  57  72 SE10      30.02F                  
HARLAN  *      CLOUDY    70  55  60 S10       30.01S                  
LAMONI         CLOUDY    68  57  68 SE3       30.03S                  
RED OAK *      CLOUDY    72  57  60 MISG      29.99F                  
SHENANDOAH *   CLOUDY    72  57  60 SE9       29.99F                  
$$
 
IAZ047>049-059>061-072>074-084-140600-
   CENTRAL IOWA
  
CITY           SKY/WX    TMP DP  RH WIND       PRES   REMARKS
AMES           CLOUDY    69  54  58 S5        30.01R                  
ANKENY *       CLOUDY    68  57  68 CALM      30.01R                  
BOONE *        CLOUDY    70  55  60 S6        30.00R                  
CHARITON *     CLOUDY    66  55  68 SE7       30.01S                  
DES MOINES     PTCLDY    68  55  63 S7        29.99S                  
GRINNELL*      CLOUDY    68  53  58 S6        30.03R                  
KNOXVILLE *    CLOUDY    66  54  63 S8        30.00R                  
MARSHALLTOWN   CLOUDY    69  54  58 S6        30.01R                  
NEWTON *       CLOUDY    64  55  72 S6        30.01R                  
PELLA *        CLOUDY    66  53  63 S6        30.02R                  
$$
 
IAZ004>006-015-016-023>025-035-036-140600-
   NORTH CENTRAL IOWA
  
CITY           SKY/WX    TMP DP  RH WIND       PRES   REMARKS
ALGONA *       CLOUDY    66  55  68 CALM      30.02S                  
CLARION *      MOCLDY    64  61  88 E3        30.03R                  
ESTHERVILLE    CLOUDY    64  54  69 S6        30.01S                  
MASON CITY     MOCLDY    63  55  75 S3        30.05R                  
FOREST CITY *  FAIR      63  55  77 CALM      30.03R                  
WEBSTER CITY * CLOUDY    68  54  60 CALM      30.00S                  
IOWA FALLS *   FAIR      66  57  72 NW3       30.04R                  
$$

IAZ007>011-017>019-026>030-037>042-050>054-066-140600-
   NORTHEAST IOWA
  
CITY           SKY/WX    TMP DP  RH WIND       PRES   REMARKS
CEDAR RAPIDS   FAIR      66  55  67 SW3       30.01F                  
CHARLES CITY * CLOUDY    66  57  72 SE6       30.02R                  
CLINTON *      FAIR      62  56  80 CALM      30.04F                  
DECORAH *      FAIR      64  55  72 E3        30.00S                  
DUBUQUE        FAIR      62  55  77 S3        30.03F                  
MONTICELLO *   FAIR      64  59  82 E5        30.00F                  
OELWEIN *      CLOUDY    66  55  68 SE5       30.02R                  
WATERLOO       FAIR      67  54  63 S6        30.01R                  
$$
 
IAZ064-065-067-068-078-140600-
   EAST CENTRAL IOWA
  
CITY           SKY/WX    TMP DP  RH WIND       PRES   REMARKS
DAVENPORT      FAIR      62  56  80 SW3       30.06F                  
IOWA CITY      FAIR      66  60  81 S7        30.01F                  
MUSCATINE *      N/A    N/A N/A N/A MISG        N/A                   
QUAD CITIES    FAIR      61  56  83 CALM      30.04S                  
$$
 
IAZ062-063-075>077-085>089-095>099-140600-
   SOUTHEAST IOWA
  
CITY           SKY/WX    TMP DP  RH WIND       PRES   REMARKS
BURLINGTON     CLEAR     65  50  58 E3        30.04F                  
FAIRFIELD *    PTCLDY    64  54  68 SE6       30.02F                  
FORT MADISON * CLEAR     61  54  77 CALM      30.05S                  
KEOKUK *       CLEAR     64  55  72 E5        30.03S                  
OSKALOOSA *    FAIR      63  56  78 SE8       30.02S                  
CENTERVILLE *    N/A     61  59  94 CALM      30.05F                  
OTTUMWA        PTCLDY    65  53  65 SE9       30.02F                  
WASHINGTON *   PTCLDY    64  59  82 SE8       30.03F                  
$$

ABBREVIATIONS USED IN REMARKS
   TC - TEMPERATURES IN CELSIUS
  WCI - WIND CHILL INDEX
   HX - HEAT INDEX
  VSB - VISIBILITY  
$$